Starlink 35562

operational
NORAD ID: 66062 Int'l Des: 2025-235 Owner: SPXS Country: US Constellation: starlink
NOTLE

About Starlink 35562

Description loading...

Live Position

Loading 3D Globe...

Upcoming Passes

Altitude History

Altitude vs Time

uPlot chart will show altitude changes over time

Two-Line Element Set

1 66062C 25235F 25293.06645833 .00528430 00000+0 78646-3 0 2935
2 66062 53.1589 188.8621 0006032 293.5688 193.4598 16.03545483 18
Epoch: Oct 20, 2025 • Age: 14 hours

Current Status

Altitude 271.6 km
Velocity 7.75 km/s
Sub-Earth Point 44.39°N, 87.28°E
Launch Date Oct 19, 2025
Age 1 days
Type internet

Technical Details

Classification Payload
Mass 575.00 kg
Dry Mass 530.00 kg
Total Mass 575.00 kg
Length 0.30 m
Diameter 4.10 m
Span 29.00 m
Shape Box + pan
Manufacturer SPXS
Bus Type Starlink V2MO
Phase Status In Orbit
Owner/State SPXS/US

Large Constellations

Loading constellations...